Date String (YYYY-MM-DD hh:mm:ss) UTC,Instrument flags,Ambient pressure (hPa),Sample flow (lpm),Bypass flow (lpm),Sample temperature (°C),Ambient temperature (°C),ASC tube jacket temperature (°C),LED temperature (°C),Box temperature (°C),Sample RH (%),Span deviation,Mass concentration (μg/m³),Mass concentration (μg/m³),Mass concentration (μg/m³)
DateTimeUTC,F1_M11,P_M11,Q1_M11,Q2_M11,T1_M11,T2_M11,T3_M11,T4_M11,T5_M11,U1_M11,ZSPAN_M11,X0_M11,X2_M11,X1_M11
2022-12-14 09:00:00,,0812.6,4.98,0.00,22.4,21.0,00.0,31.3,24.2,10.6,-000.9,0024.02,0010.11,0008.10
2022-12-14 09:01:00,,0812.6,5.01,0.00,22.4,21.0,00.0,31.3,24.2,10.6,-001.1,0024.09,0010.09,0008.09
2022-12-14 09:02:00,,0812.6,5.01,0.00,22.4,21.0,00.0,31.3,24.2,10.5,-001.3,0023.39,0010.11,0008.10
2022-12-14 09:03:00,,0812.6,5.01,0.00,22.4,21.0,00.0,31.3,24.2,10.5,-001.2,0023.22,0010.18,0008.11
2022-12-14 09:04:00,,0812.6,5.01,0.00,22.4,20.9,00.0,31.3,24.2,10.6,-001.3,0022.78,0010.15,0008.11
2022-12-14 09:05:00,,0812.6,5.00,0.00,22.4,20.9,00.0,31.2,24.1,10.6,-001.1,0022.93,0010.11,0008.08
2022-12-14 09:06:00,,0812.7,4.97,0.00,22.4,20.9,00.0,31.2,24.1,10.6,-000.8,0023.72,0010.15,0008.08
2022-12-14 09:07:00,,0812.7,5.06,0.00,22.4,20.9,00.0,31.2,24.1,10.5,-000.8,0023.80,0010.21,0008.12
2022-12-14 09:08:00,,0812.7,4.95,0.00,22.3,20.9,00.0,31.2,24.1,10.5,-000.4,0023.25,0010.23,0008.17
2022-12-14 09:09:00,,0812.7,5.06,0.00,22.3,20.9,00.0,31.2,24.1,10.5,-000.4,0023.69,0010.28,0008.20
2022-12-14 09:10:00,,0812.8,4.96,0.00,22.4,21.6,00.0,31.2,24.3,10.5,0000.0,0024.43,0010.36,0008.25
2022-12-14 09:11:00,,0812.7,5.02,0.00,22.5,22.4,00.0,31.2,24.5,10.4,0000.5,0025.13,0010.43,0008.28
2022-12-14 09:12:00,,0812.7,4.97,0.00,22.6,22.3,00.0,31.2,24.5,10.4,0000.2,0025.10,0010.53,0008.30
2022-12-14 09:13:00,,0812.8,5.02,0.00,22.6,22.0,00.0,31.3,24.4,10.3,0000.0,0025.58,0010.53,0008.30
2022-12-14 09:14:00,,0812.7,5.01,0.00,22.5,21.7,00.0,31.3,24.4,10.3,0000.1,0025.52,0010.53,0008.30
2022-12-14 09:15:00,,0812.8,4.97,0.00,22.5,21.5,00.0,31.3,24.3,10.3,0000.5,0026.02,0010.60,0008.32
2022-12-14 09:16:00,,0812.8,5.01,0.00,22.5,21.4,00.0,31.3,24.3,10.3,0000.5,0026.39,0010.67,0008.36
2022-12-14 09:17:00,,0812.8,5.01,0.00,22.5,21.2,00.0,31.3,24.3,10.3,0000.2,0025.76,0010.68,0008.39
2022-12-14 09:18:00,,0812.8,5.01,0.00,22.5,21.2,00.0,31.3,24.3,10.4,0000.4,0025.43,0010.69,0008.40
2022-12-14 09:19:00,,0812.8,5.00,0.00,22.5,21.1,00.0,31.3,24.3,10.6,0000.4,0026.26,0010.72,0008.39
2022-12-14 09:20:00,,0812.8,4.97,0.00,22.5,21.1,00.0,31.3,24.3,10.6,0000.3,0025.91,0010.71,0008.39
2022-12-14 09:21:00,,0812.8,5.01,0.00,22.5,21.1,00.0,31.3,24.3,10.5,-000.4,0025.58,0010.69,0008.38
2022-12-14 09:22:00,,0812.8,5.02,0.00,22.5,21.1,00.0,31.3,24.2,10.5,-000.9,0024.86,0010.70,0008.38
2022-12-14 09:23:00,,0812.8,4.98,0.00,22.5,21.0,00.0,31.3,24.2,10.4,-000.5,0024.82,0010.69,0008.38
2022-12-14 09:24:00,,0812.8,5.01,0.00,22.4,21.0,00.0,31.3,24.2,10.4,0000.3,0024.64,0010.75,0008.40
2022-12-14 09:25:00,,0812.8,5.00,0.00,22.4,21.0,00.0,31.3,24.2,10.5,0000.3,0024.60,0010.80,0008.40
2022-12-14 09:26:00,,0812.8,5.01,0.00,22.4,21.0,00.0,31.3,24.2,10.5,0000.4,0024.63,0010.81,0008.40
2022-12-14 09:27:00,,0812.9,5.00,0.00,22.4,20.9,00.0,31.3,24.2,10.6,0000.9,0024.27,0010.76,0008.38
2022-12-14 09:28:00,,0812.9,5.01,0.00,22.4,20.9,00.0,31.3,24.2,10.7,0001.2,0024.26,0010.69,0008.37
2022-12-14 09:29:00,,0812.9,5.00,0.00,22.4,20.9,00.0,31.3,24.1,10.6,0000.9,0024.08,0010.61,0008.36
2022-12-14 09:30:00,,0812.9,4.97,0.00,22.4,20.9,00.0,31.2,24.1,10.6,0000.8,0023.69,0010.60,0008.37
2022-12-14 09:31:00,,0812.9,5.01,0.00,22.4,20.9,00.0,31.2,24.1,10.5,0001.0,0023.20,0010.59,0008.39
2022-12-14 09:32:00,,0812.9,5.02,0.00,22.4,21.3,00.0,31.2,24.2,10.4,0001.7,0022.85,0010.61,0008.40
2022-12-14 09:33:00,,0813.0,5.00,0.00,22.5,22.1,00.0,31.2,24.4,10.4,0002.5,0022.22,0010.59,0008.41
2022-12-14 09:34:00,,0813.1,5.03,0.00,22.6,22.4,00.0,31.2,24.5,10.4,0002.3,0022.01,0010.63,0008.42
2022-12-14 09:35:00,,0813.2,4.97,0.00,22.6,22.1,00.0,31.3,24.5,10.5,0001.7,0022.67,0010.60,0008.42
2022-12-14 09:36:00,,0813.1,5.01,0.00,22.6,21.8,00.0,31.3,24.4,10.5,0001.2,0024.71,0010.58,0008.44
2022-12-14 09:37:00,,0813.1,5.01,0.00,22.5,21.6,00.0,31.3,24.3,10.5,0001.1,0024.84,0010.57,0008.45
2022-12-14 09:38:00,,0813.0,4.97,0.00,22.5,21.4,00.0,31.3,24.3,10.4,0001.2,0024.51,0010.57,0008.48
2022-12-14 09:39:00,,0813.2,5.01,0.00,22.5,21.3,00.0,31.3,24.3,10.5,0001.3,0024.90,0010.60,0008.49
2022-12-14 09:40:00,,0813.2,5.00,0.00,22.5,21.2,00.0,31.3,24.3,10.6,0001.3,0025.37,0010.73,0008.52
2022-12-14 09:41:00,,0813.3,5.01,0.00,22.5,21.1,00.0,31.3,24.3,10.6,0000.8,0025.79,0010.75,0008.51
2022-12-14 09:42:00,,0813.3,5.00,0.00,22.5,21.1,00.0,31.3,24.3,10.6,0000.8,0025.76,0010.74,0008.50
2022-12-14 09:43:00,,0813.0,5.01,0.00,22.5,21.0,00.0,31.3,24.3,10.7,0000.7,0025.65,0010.73,0008.48
2022-12-14 09:44:00,,0813.2,5.01,0.00,22.4,21.0,00.0,31.3,24.2,10.7,0000.0,0025.79,0010.75,0008.45
2022-12-14 09:45:00,,0813.0,5.00,0.00,22.4,20.9,00.0,31.3,24.2,10.7,0000.5,0025.95,0010.69,0008.43
2022-12-14 09:46:00,,0813.0,4.96,0.00,22.4,21.0,00.0,31.3,24.2,10.8,0000.5,0025.30,0010.68,0008.42
2022-12-14 09:47:00,,0813.0,5.04,0.00,22.4,20.9,00.0,31.3,24.2,10.8,0000.7,0023.32,0010.65,0008.40
2022-12-14 09:48:00,,0813.0,4.96,0.00,22.4,20.9,00.0,31.3,24.2,10.8,0000.5,0022.63,0010.64,0008.39
2022-12-14 09:49:00,,0813.0,5.05,0.00,22.4,20.9,00.0,31.3,24.2,10.8,0000.3,0023.28,0010.58,0008.36
2022-12-14 09:50:00,,0813.1,4.95,0.00,22.4,20.9,00.0,31.3,24.2,10.8,0000.2,0023.31,0010.56,0008.34
2022-12-14 09:51:00,,0813.0,5.01,0.00,22.4,21.6,00.0,31.2,24.3,10.8,0000.3,0023.81,0010.49,0008.31
2022-12-14 09:52:00,,0813.0,5.03,0.00,22.5,22.5,00.0,31.3,24.5,10.7,0000.6,0023.14,0010.49,0008.30
2022-12-14 09:53:00,,0813.0,4.97,0.00,22.6,22.4,00.0,31.3,24.6,10.7,0000.6,0023.06,0010.52,0008.29
2022-12-14 09:54:00,,0813.1,5.01,0.00,22.6,22.1,00.0,31.3,24.5,10.7,0000.9,0022.91,0010.49,0008.27
2022-12-14 09:55:00,,0813.0,5.01,0.00,22.6,21.8,00.0,31.3,24.4,10.6,0000.6,0022.66,0010.43,0008.28
2022-12-14 09:56:00,,0813.0,4.97,0.00,22.6,21.6,00.0,31.3,24.4,10.7,0000.5,0023.21,0010.43,0008.29
2022-12-14 09:57:00,,0813.1,5.01,0.00,22.6,21.4,00.0,31.3,24.4,10.7,0000.9,0023.15,0010.40,0008.29
2022-12-14 09:58:00,,0813.3,5.01,0.00,22.6,21.3,00.0,31.3,24.4,10.7,0001.5,0023.52,0010.41,0008.30
2022-12-14 09:59:00,,0813.0,5.01,0.00,22.5,21.2,00.0,31.3,24.3,10.7,0002.1,0023.98,0010.46,0008.31
